Wind_Speed
79 76 73 70 66 60 54 53 52 53 48 46 38 33 43 37 31 27 20 23 27 24 21 21 20 20 22 26 28 30 34 34 33 33 33 32 31 32 32 33 33 35 36 36 37 39 41 42 43
82 82 80 77 71 65 62 61 60 60 53 46 38 44 45 45 33 30 26 25 31 27 26 25 24 24 23 22 24 28 31 34 37 36 37 36 35 34 36 36 37 38 39 39 39 42 42 44 43
88 86 86 84 76 66 67 68 68 68 57 50 51 51 50 42 36 33 38 32 34 31 31 30 29 27 26 25 25 25 28 31 34 37 38 40 40 39 38 39 39 38 40 42 42 41 40 42 42
100 96 93 89 80 78 76 78 75 74 61 56 58 53 56 50 42 44 45 35 36 35 34 35 33 32 31 29 30 29 29 29 31 34 36 40 41 41 42 42 43 43 43 42 42 36 42 45 45
106 103 98 95 90 86 85 84 82 74 68 65 65 65 56 50 46 50 46 44 42 42 41 39 38 36 36 35 34 34 34 33 33 33 34 36 37 40 42 43 44 45 44 42 42 43 48 45 45
111 108 105 99 97 93 89 86 85 77 74 72 73 71 63 53 52 52 53 50 49 47 46 45 42 42 41 40 39 38 39 39 38 38 37 38 38 39 40 40 42 44 45 44 45 46 46 46 46
115 114 104 106 102 102 95 94 90 83 81 80 78 75 67 58 56 56 55 52 50 51 52 48 49 48 48 46 45 44 41 42 42 42 44 43 43 43 44 44 43 42 41 42 43 44 45 49 51
118 120 117 110 109 104 104 99 95 90 89 88 79 79 75 66 63 62 62 61 58 54 53 52 52 54 54 54 52 51 49 47 48 48 45 45 44 44 46 45 46 46 46 47 49 48 49 51 51
118 125 119 114 113 108 108 104 99 97 93 90 84 82 81 74 69 69 68 68 66 61 59 58 58 58 59 60 59 58 56 56 54 55 54 51 49 48 48 46 48 50 51 51 52 50 51 52 53
116 121 120 120 115 113 113 111 108 106 98 94 90 86 86 83 80 79 75 73 71 69 68 67 67 66 65 65 65 65 64 63 62 62 61 61 57 54 55 55 56 55 52 53 53 54 54 52 52
106 110 121 122 124 127 123 116 115 103 99 96 98 95 89 89 90 87 84 80 76 79 72 72 75 75 73 71 70 70 69 69 69 68 68 68 66 65 62 59 60 62 61 59 61 60 57 56 55
106 107 114 124 132 134 123 118 115 110 107 105 105 99 96 92 90 91 90 89 83 76 74 74 82 85 85 81 77 75 75 74 73 73 73 71 72 71 71 69 68 66 65 67 67 64 59 60 57
99 107 112 120 130 122 121 119 116 110 111 108 105 105 103 98 96 94 92 92 89 86 79 66 58 79 88 89 85 84 81 81 80 79 77 76 75 73 73 75 74 73 68 71 72 69 67 65 65
88 101 109 114 120 121 121 123 118 115 113 111 106 106 105 104 102 102 98 95 94 91 89 87 66 71 88 92 90 91 87 87 85 85 84 84 81 80 81 80 78 79 76 72 72 71 70 69 66
72 91 103 109 112 115 121 119 116 117 118 111 107 105 104 105 104 103 103 103 100 97 93 94 99 94 95 97 100 96 93 89 91 90 90 88 88 85 87 84 82 81 85 79 72 71 71 73 69
57 72 84 99 106 108 115 117 118 117 114 111 106 108 109 107 105 105 105 107 107 104 101 102 104 107 104 103 104 103 100 98 96 95 94 91 87 90 88 88 85 82 86 82 78 77 75 77 74
43 53 64 82 98 101 105 111 117 116 114 113 111 105 102 103 103 104 104 105 109 111 110 110 112 111 109 109 107 105 104 105 102 102 100 96 93 92 91 90 89 88 93 89 90 89 85 81 76
36 43 50 64 84 93 97 103 111 113 116 117 116 114 111 100 98 102 103 104 106 111 110 113 116 115 112 113 112 110 111 111 109 105 106 107 105 102 99 98 93 93 93 89 89 87 89 93 86
26 35 39 47 65 79 91 94 98 108 114 111 115 120 118 121 117 102 104 106 109 113 116 111 115 113 116 115 114 114 113 114 112 111 109 107 105 110 107 104 100 96 99 96 96 93 90 91 89
7 23 38 42 47 64 84 90 93 94 101 106 111 113 111 117 126 128 113 100 106 110 113 110 114 115 112 117 117 116 117 117 119 112 112 108 104 106 106 105 107 102 100 102 101 100 96 97 90
12 9 10 25 41 48 62 80 90 93 93 98 104 112 114 114 112 128 128 131 118 104 106 111 116 115 114 115 113 112 112 113 111 111 112 116 117 116 112 112 110 105 108 106 104 103 100 101 96
19 14 13 11 13 23 43 57 68 83 92 94 94 98 104 110 111 112 116 134 139 134 130 121 109 116 116 114 116 115 114 116 118 118 120 118 113 112 115 118 106 108 110 108 107 105 103 104 103
23 20 20 17 19 16 20 23 37 51 65 79 84 89 94 98 102 107 111 112 116 136 143 137 137 133 128 121 120 116 115 118 119 121 116 116 119 120 124 127 121 118 115 111 111 107 106 107 108
27 25 26 23 22 20 28 25 29 33 31 38 47 58 68 82 91 100 104 105 107 111 118 129 131 136 139 140 145 141 134 130 124 115 112 112 92 99 115 119 118 118 117 114 112 110 110 107 106
30 29 29 29 27 27 34 32 37 40 37 39 40 46 50 55 60 67 80 95 102 112 115 119 121 121 127 134 136 136 138 143 143 137 134 123 112 112 99 108 114 114 113 111 112 114 110 110 111
35 31 32 32 31 33 36 39 42 44 42 42 48 53 61 64 67 70 77 80 84 91 104 105 115 118 121 124 131 133 136 140 143 145 144 137 137 134 132 125 124 122 121 113 110 109 108 103 103
41 37 37 36 37 35 40 43 47 49 45 48 55 61 68 72 73 78 85 85 85 89 93 94 97 104 106 107 111 124 128 129 130 131 134 139 138 139 138 138 132 131 108 106 109 111 115 112 112
44 41 39 40 38 40 42 43 52 50 52 57 63 67 71 75 79 81 87 90 95 95 94 98 98 100 101 103 105 110 114 117 119 122 122 124 126 127 130 123 113 124 124 116 112 110 108 105 104
47 45 43 41 41 42 45 49 53 53 59 62 65 69 64 54 50 51 54 60 69 79 91 97 100 102 104 105 107 109 112 115 113 110 105 108 109 111 110 109 110 106 101 90 86 89 100 94 87
48 47 47 45 45 46 47 51 54 57 58 61 54 34 24 14 14 15 20 31 43 55 67 76 83 87 90 90 95 103 112 116 115 112 105 97 99 94 72 63 66 67 57 38 57 84 96 81 82
Wind_Direction
241 240 239 236 230 233 236 240 242 242 237 241 239 230 243 248 248 251 237 247 251 250 253 259 263 267 265 263 261 262 259 256 256 259 264 267 269 277 282 288 293 298 305 309 314 315 317 318 318
242 242 241 239 231 230 239 241 242 242 240 242 236 240 248 248 248 255 254 251 254 252 251 253 257 262 268 273 276 273 269 268 266 265 264 268 273 277 282 286 291 298 303 305 309 312 314 315 315
239 241 242 237 231 228 239 241 239 238 235 239 239 244 248 252 254 248 245 246 251 251 251 251 251 253 255 263 270 278 282 278 274 272 272 274 276 279 283 285 289 294 297 301 307 309 314 316 317
240 237 238 236 232 236 240 242 241 237 232 241 244 241 248 253 250 251 256 250 251 250 254 253 251 252 254 254 259 265 270 275 277 276 276 272 273 277 281 285 289 293 296 299 306 303 314 314 315
236 237 236 236 232 237 240 240 236 233 236 243 245 245 246 248 247 250 251 253 249 251 251 253 253 253 255 256 255 260 266 267 271 275 278 279 280 281 283 283 285 287 290 293 298 296 308 312 314
236 236 234 234 235 239 238 238 235 231 238 242 243 243 241 238 243 246 252 253 252 253 252 253 250 254 258 257 258 260 262 267 272 274 277 278 279 280 280 282 286 288 292 294 295 299 301 306 306
234 235 235 234 235 237 237 238 235 232 240 243 243 245 242 238 240 244 249 248 250 252 254 252 254 252 253 258 259 260 264 267 270 273 271 272 277 279 282 283 284 285 291 295 295 297 298 302 305
232 231 231 233 231 234 236 236 237 234 239 242 237 244 243 241 239 240 242 243 245 247 252 254 254 257 258 257 258 261 264 266 268 272 276 273 272 276 275 278 282 286 286 291 293 294 295 297 301
234 231 229 229 232 231 234 235 237 237 237 241 239 246 244 239 238 241 243 243 245 246 248 253 258 258 260 263 261 260 261 264 269 275 276 278 279 281 282 283 283 281 285 288 291 292 295 295 298
238 231 228 227 230 231 233 234 234 234 235 238 241 243 244 236 241 241 242 245 248 250 251 256 258 261 262 263 264 265 264 263 266 269 272 275 277 278 279 280 282 283 286 286 291 292 292 298 299
232 229 225 225 228 230 231 233 234 233 239 240 242 242 243 243 245 248 248 247 248 254 254 256 260 262 262 261 263 265 266 267 267 268 269 271 274 278 279 278 280 282 282 283 287 291 291 292 297
224 222 223 223 225 227 230 233 235 233 236 238 241 241 242 243 247 248 250 251 248 249 255 258 264 262 262 262 263 264 266 268 268 269 269 272 272 274 279 282 283 284 284 284 287 289 288 288 289
221 220 218 221 224 226 230 232 233 233 237 238 241 243 243 244 244 246 248 251 253 253 251 264 264 259 259 262 263 264 267 268 269 270 271 273 274 275 274 276 278 280 282 283 284 287 287 287 287
219 220 220 220 223 224 226 229 231 232 235 238 241 243 245 244 245 246 247 249 249 250 251 246 268 263 254 256 263 265 267 270 271 272 272 272 274 276 277 277 279 281 282 279 281 285 287 286 283
219 221 222 222 223 223 225 228 231 232 233 236 239 243 245 248 249 249 249 249 250 249 250 249 249 256 264 264 265 266 267 268 270 272 273 274 275 275 278 278 279 279 279 283 283 283 285 286 286
219 220 224 225 225 225 225 228 230 231 233 235 239 240 243 246 250 251 252 252 252 252 249 250 252 254 259 263 263 263 267 267 269 270 271 273 273 275 275 276 278 276 278 280 281 283 286 288 289
219 223 226 226 226 227 227 228 231 231 232 233 235 235 241 246 249 251 254 254 254 253 253 253 252 254 256 259 262 263 265 268 269 269 270 271 272 272 273 273 275 274 277 279 280 280 281 282 284
220 222 228 230 227 228 230 231 233 234 232 235 237 238 235 237 244 247 249 251 253 256 257 258 257 255 254 260 262 263 263 266 268 269 269 270 272 272 272 273 274 278 280 280 278 280 281 280 283
230 229 232 236 232 230 231 232 235 236 237 237 238 239 238 238 240 241 245 251 254 255 256 258 259 259 258 258 262 263 264 263 265 267 267 270 271 270 272 273 272 275 277 279 282 282 282 283 281
319 240 237 236 237 234 234 235 235 238 238 239 240 240 240 241 240 243 241 245 246 250 253 255 258 260 261 262 262 263 264 264 264 267 268 269 267 269 270 269 272 275 275 276 279 282 282 282 284
299 297 271 246 240 235 234 235 238 240 240 242 243 243 245 243 242 241 244 247 243 245 248 251 253 257 259 259 261 261 262 263 263 265 265 266 263 265 267 267 269 272 274 276 278 281 278 280 281
284 288 276 272 259 246 243 240 240 243 245 245 246 248 250 251 251 249 246 245 246 251 252 245 248 252 254 254 256 256 256 258 260 262 264 266 268 270 269 268 266 268 267 269 272 274 275 277 279
272 267 269 270 266 264 253 242 246 248 250 250 252 253 252 251 252 253 254 253 251 247 249 253 252 248 249 248 250 249 251 254 257 258 258 260 263 264 261 262 264 266 264 264 266 268 270 272 274
264 262 267 262 261 262 262 264 263 266 256 250 248 250 252 254 256 257 256 256 257 257 255 253 256 257 257 257 258 258 255 255 254 254 253 253 261 265 261 262 262 263 263 262 261 265 267 268 268
261 259 258 262 260 259 263 265 265 264 264 270 269 272 269 263 258 259 259 259 259 257 257 258 258 259 259 256 257 260 261 260 258 260 259 252 251 257 266 266 263 264 264 264 262 263 263 266 269
247 256 256 259 258 257 263 264 266 267 272 273 276 277 274 271 268 266 266 262 259 259 257 258 257 257 258 259 258 257 259 258 256 256 257 258 258 257 257 265 267 270 272 270 270 268 269 271 271
249 252 255 256 259 263 266 272 274 275 281 283 279 278 278 276 274 273 273 267 262 263 262 260 260 258 257 258 260 261 258 258 258 258 257 256 258 258 259 258 264 268 272 274 276 278 278 277 276
247 249 250 254 259 264 268 273 276 286 286 282 281 280 279 278 277 273 269 267 269 269 269 267 264 263 260 258 257 260 261 259 258 257 258 259 258 257 259 261 261 269 271 275 278 279 278 277 277
241 247 246 251 255 262 269 276 281 284 285 288 292 293 295 293 287 281 276 270 267 265 266 265 264 262 260 258 258 257 258 258 259 257 256 257 258 259 257 261 262 266 273 277 280 277 272 270 267
243 244 249 250 258 266 270 276 280 287 291 295 294 297 296 300 293 291 295 287 280 274 271 269 267 266 263 259 256 255 254 255 256 258 257 257 259 260 266 266 262 265 268 280 284 283 269 256 261
Height
10908 10912 10916 10918 10926 10934 10938 10939 10939 10940 10944 10947 10953 10953 10951 10954 10961 10965 10966 10970 10969 10971 10973 10974 10974 10976 10978 10979 10981 10983 10983 10985 10986 10987 10987 10987 10988 10988 10988 10987 10987 10987 10987 10986 10986 10986 10985 10983 10981
10895 10897 10902 10907 10917 10925 10929 10928 10931 10931 10937 10945 10947 10944 10945 10945 10959 10961 10963 10966 10963 10967 10968 10969 10970 10972 10973 10975 10976 10978 10980 10981 10983 10984 10984 10985 10985 10985 10985 10985 10985 10985 10985 10984 10983 10982 10981 10980 10977
10879 10882 10887 10895 10908 10916 10919 10917 10917 10919 10933 10938 10936 10937 10936 10946 10952 10955 10952 10960 10957 10962 10963 10964 10965 10967 10969 10970 10972 10973 10975 10977 10978 10980 10982 10983 10983 10982 10982 10982 10982 10982 10982 10981 10980 10979 10978 10976 10974
10861 10863 10874 10884 10901 10905 10904 10904 10907 10911 10926 10930 10927 10933 10932 10940 10944 10946 10944 10955 10951 10955 10956 10958 10960 10961 10963 10965 10966 10968 10970 10971 10973 10975 10977 10978 10980 10980 10980 10980 10980 10979 10979 10978 10977 10976 10975 10974 10971
10840 10846 10860 10873 10885 10890 10889 10888 10893 10904 10915 10920 10920 10918 10931 10934 10936 10935 10938 10945 10944 10947 10948 10950 10954 10956 10957 10959 10960 10962 10964 10965 10967 10969 10971 10972 10974 10976 10976 10976 10976 10975 10975 10974 10974 10973 10972 10970 10968
10820 10829 10842 10861 10868 10876 10875 10881 10884 10894 10902 10906 10909 10910 10923 10928 10926 10927 10930 10935 10937 10940 10941 10943 10945 10948 10951 10953 10955 10956 10957 10959 10961 10962 10964 10966 10968 10969 10970 10971 10971 10970 10971 10970 10970 10969 10968 10966 10964
10803 10812 10830 10839 10849 10854 10861 10864 10872 10882 10888 10890 10895 10903 10913 10924 10919 10920 10921 10925 10928 10932 10933 10936 10938 10940 10943 10945 10947 10949 10951 10953 10955 10956 10958 10959 10961 10962 10963 10964 10965 10965 10965 10965 10964 10963 10962 10960 10959
10774 10782 10798 10817 10828 10843 10843 10852 10856 10866 10870 10872 10890 10891 10897 10914 10908 10910 10911 10915 10918 10922 10925 10928 10931 10933 10935 10937 10940 10942 10945 10946 10948 10949 10951 10953 10955 10956 10957 10958 10959 10959 10959 10958 10958 10957 10956 10955 10954
10745 10750 10780 10800 10811 10825 10825 10833 10841 10846 10859 10870 10876 10880 10884 10903 10899 10898 10900 10904 10909 10914 10919 10921 10923 10925 10926 10928 10931 10934 10936 10938 10940 10941 10943 10945 10946 10950 10951 10951 10952 10953 10953 10953 10952 10951 10950 10949 10948
10705 10731 10761 10779 10793 10801 10801 10806 10818 10825 10848 10856 10863 10865 10868 10884 10879 10884 10890 10894 10902 10909 10913 10915 10918 10918 10919 10920 10922 10924 10926 10928 10930 10931 10934 10936 10938 10940 10942 10942 10944 10945 10946 10945 10945 10944 10943 10943 10942
10677 10704 10732 10753 10764 10759 10767 10789 10793 10832 10842 10844 10843 10850 10859 10864 10866 10872 10879 10885 10899 10898 10908 10914 10912 10913 10911 10911 10910 10912 10915 10917 10919 10920 10922 10925 10927 10929 10931 10932 10934 10936 10938 10938 10937 10937 10936 10936 10935
10654 10680 10698 10720 10724 10729 10767 10777 10788 10811 10817 10820 10823 10839 10841 10849 10853 10856 10863 10867 10881 10891 10896 10902 10896 10897 10899 10901 10897 10900 10902 10905 10906 10909 10911 10914 10916 10919 10920 10919 10922 10923 10926 10928 10928 10928 10928 10928 10927
10642 10660 10676 10691 10699 10740 10758 10763 10771 10792 10796 10803 10811 10820 10826 10831 10836 10840 10847 10855 10868 10876 10886 10895 10876 10870 10875 10885 10890 10885 10889 10891 10894 10897 10898 10901 10904 10907 10908 10909 10912 10913 10916 10917 10918 10919 10920 10919 10919
10629 10647 10663 10678 10693 10719 10729 10737 10753 10772 10780 10787 10795 10802 10808 10816 10820 10824 10833 10841 10850 10861 10867 10874 10869 10842 10853 10865 10874 10871 10877 10875 10881 10881 10885 10886 10890 10891 10891 10896 10897 10898 10903 10907 10906 10907 10908 10910 10911
10625 10642 10658 10672 10683 10703 10714 10727 10742 10748 10755 10773 10784 10789 10793 10797 10803 10810 10816 10822 10830 10845 10855 10857 10850 10845 10842 10847 10855 10859 10860 10861 10864 10865 10868 10873 10874 10879 10875 10880 10882 10882 10886 10890 10894 10893 10894 10896 10899
10624 10637 10651 10663 10674 10686 10703 10715 10721 10726 10746 10761 10772 10771 10777 10784 10789 10794 10798 10803 10812 10826 10839 10837 10834 10835 10831 10829 10835 10841 10840 10848 10849 10850 10850 10858 10860 10860 10864 10863 10868 10866 10870 10880 10879 10881 10881 10882 10885
10626 10636 10645 10650 10661 10675 10690 10696 10696 10719 10733 10742 10749 10753 10763 10770 10773 10777 10779 10784 10792 10798 10805 10813 10815 10818 10821 10816 10814 10823 10826 10828 10834 10833 10838 10840 10845 10844 10847 10848 10851 10848 10854 10864 10866 10868 10869 10868 10872
10624 10630 10637 10641 10652 10668 10679 10683 10686 10700 10716 10724 10731 10736 10747 10750 10753 10757 10761 10763 10771 10777 10785 10781 10785 10793 10803 10798 10799 10804 10812 10814 10816 10821 10822 10824 10826 10829 10830 10833 10837 10832 10832 10845 10846 10853 10852 10857 10858
10626 10630 10636 10636 10647 10659 10665 10672 10676 10686 10698 10703 10708 10713 10725 10733 10736 10736 10741 10743 10750 10758 10761 10758 10761 10771 10776 10784 10781 10784 10791 10796 10801 10803 10809 10810 10810 10806 10807 10815 10823 10826 10825 10822 10823 10834 10841 10840 10842
10626 10627 10630 10634 10641 10649 10654 10664 10667 10673 10679 10684 10691 10696 10702 10712 10716 10718 10723 10726 10730 10736 10744 10741 10740 10747 10750 10757 10762 10763 10768 10773 10780 10786 10789 10794 10794 10786 10788 10796 10795 10811 10807 10809 10815 10817 10820 10823 10825
10627 10627 10627 10629 10634 10639 10641 10648 10653 10659 10666 10668 10673 10676 10682 10687 10695 10705 10707 10711 10714 10717 10723 10727 10721 10721 10728 10734 10742 10751 10748 10752 10756 10758 10759 10765 10770 10774 10772 10772 10789 10788 10788 10791 10793 10801 10804 10804 10811
10625 10625 10626 10627 10629 10631 10638 10641 10643 10645 10650 10656 10660 10663 10675 10688 10693 10691 10685 10687 10690 10696 10700 10704 10703 10705 10708 10714 10719 10721 10726 10728 10738 10740 10740 10742 10748 10757 10754 10748 10765 10775 10772 10774 10773 10776 10786 10785 10788
10622 10623 10622 10624 10625 10628 10628 10631 10630 10636 10640 10643 10658 10660 10659 10656 10654 10659 10667 10669 10665 10669 10669 10664 10677 10686 10685 10687 10695 10701 10708 10712 10716 10721 10726 10719 10726 10729 10727 10717 10736 10749 10757 10758 10758 10757 10770 10771 10775
10616 10617 10617 10620 10622 10625 10620 10625 10626 10624 10630 10632 10635 10640 10639 10641 10641 10640 10641 10639 10639 10641 10644 10645 10646 10649 10656 10658 10657 10669 10679 10688 10692 10698 10702 10716 10712 10706 10703 10701 10712 10720 10729 10738 10736 10743 10746 10751 10751
10609 10611 10613 10614 10616 10619 10616 10620 10618 10618 10623 10624 10627 10626 10625 10623 10621 10619 10612 10611 10608 10612 10614 10616 10621 10624 10623 10628 10630 10631 10641 10651 10657 10668 10678 10691 10701 10693 10683 10678 10688 10697 10707 10718 10723 10723 10733 10733 10736
10601 10604 10605 10607 10609 10610 10609 10610 10609 10609 10615 10619 10616 10612 10605 10604 10603 10600 10593 10591 10591 10588 10588 10591 10592 10596 10593 10594 10600 10607 10610 10616 10624 10638 10650 10657 10663 10674 10681 10659 10662 10675 10686 10698 10705 10708 10714 10717 10717
10590 10593 10596 10598 10599 10602 10598 10598 10597 10597 10606 10605 10601 10599 10591 10587 10585 10581 10571 10566 10568 10564 10561 10563 10566 10567 10570 10569 10562 10564 10579 10583 10589 10599 10609 10622 10626 10636 10647 10658 10655 10656 10667 10676 10678 10678 10677 10687 10688
10580 10583 10586 10588 10591 10592 10590 10591 10582 10589 10590 10588 10584 10581 10575 10567 10561 10555 10549 10547 10541 10535 10540 10536 10537 10539 10538 10538 10542 10538 10537 10545 10555 10564 10571 10585 10598 10604 10629 10634 10648 10647 10654 10663 10661 10662 10659 10657 10659
10569 10571 10575 10578 10581 10582 10582 10579 10575 10578 10573 10569 10563 10556 10548 10540 10534 10528 10523 10519 10517 10512 10505 10504 10500 10499 10499 10503 10507 10512 10511 10510 10515 10531 10547 10555 10566 10577 10603 10626 10637 10644 10652 10657 10647 10637 10622 10631 10636
10556 10560 10563 10569 10570 10571 10572 10568 10568 10563 10560 10555 10548 10542 10539 10532 10525 10519 10514 10507 10501 10493 10485 10478 10472 10469 10465 10466 10470 10478 10474 10478 10485 10495 10520 10538 10542 10558 10592 10609 10617 10625 10640 10641 10629 10622 10575 10597 10614